Date,TemperatureHighF,TemperatureAvgF,TemperatureLowF,DewpointHighF,DewpointAvgF,DewpointLowF,HumidityHigh,HumidityAvg,HumidityLow,PressureMaxIn,PressureMinIn,WindSpeedMaxMPH,WindSpeedAvgMPH,GustSpeedMaxMPH,PrecipitationSumIn
2013-5-1,35,30,24,30,26,19,89,83,75,30.48,30.02,0,0,0,0.17
2013-5-2,41,34,22,29,24,17,81,66,53,30.53,30.34,6,1,6,0.59
2013-5-3,54,42,27,33,28,21,80,59,39,30.34,30.10,7,1,9,0.00
2013-5-4,56,46,34,36,29,24,70,54,42,30.21,30.09,10,1,10,0.00
2013-5-5,57,46,33,31,26,20,62,48,33,30.21,30.09,8,1,8,0.00
2013-5-6,63,52,38,39,33,30,73,50,32,30.10,29.96,8,1,8,0.00
2013-5-7,70,54,43,47,37,29,83,56,31,30.05,29.95,10,2,10,0.26
2013-5-8,65,49,41,48,41,34,88,73,40,30.12,29.99,17,2,17,0.28
2013-5-9,56,48,42,46,41,36,89,78,61,30.20,30.10,16,1,16,0.10
2013-5-10,64,52,38,49,39,33,85,63,43,30.32,30.17,10,1,10,0.05
2013-5-11,64,53,40,46,38,32,76,58,43,30.37,30.22,8,1,8,0.02
2013-5-12,75,63,45,41,36,33,67,39,25,30.24,30.15,10,2,10,0.00
2013-5-13,83,70,57,44,37,31,45,31,18,30.21,30.10,11,2,11,0.00
2013-5-14,88,71,58,52,37,33,44,30,19,30.11,30.00,20,3,20,0.05
2013-5-15,79,65,54,46,38,32,66,39,22,30.06,29.98,12,2,12,0.00
2013-5-16,80,65,51,49,40,33,68,43,20,30.02,29.89,14,2,14,0.00
2013-5-17,83,68,50,46,34,16,62,33,13,29.98,29.86,10,2,10,0.00
2013-5-18,75,65,52,43,29,16,61,28,15,29.97,29.85,16,3,16,0.04
2013-5-19,71,59,50,34,28,25,51,32,21,29.92,29.84,14,3,14,0.00
2013-5-20,67,55,46,45,35,26,69,48,30,30.05,29.91,12,2,12,0.01
2013-5-21,70,55,39,39,31,25,75,44,21,30.07,29.93,17,2,17,0.00
2013-5-22,72,58,42,45,37,28,73,46,30,30.12,29.96,10,2,10,0.01
2013-5-23,67,55,46,49,44,40,84,68,50,30.13,30.02,7,1,7,0.00
2013-5-24,78,63,45,51,43,34,85,52,24,30.06,29.99,9,1,9,0.01
2013-5-25,84,69,50,54,42,24,76,42,13,30.06,29.96,8,1,8,0.00
2013-5-26,85,69,56,41,32,21,42,27,8,30.02,29.95,13,2,13,0.00
2013-5-27,84,68,53,37,25,17,40,21,10,29.95,29.83,12,2,12,0.00
2013-5-28,77,64,49,45,34,24,50,35,19,29.91,29.70,10,2,10,0.00
2013-5-29,60,53,46,47,40,30,86,62,40,29.80,29.72,15,2,15,0.34
2013-5-30,69,57,47,36,28,18,53,34,16,29.93,29.75,19,4,19,0.01
2013-5-31,67,58,46,26,19,11,38,23,13,30.06,29.89,20,4,20,0.00